Location: Goettingen
(51.5300°N, 9.9433°E)
Time: 04:45:47
(UTC+01:00)

ISS - Pass Details

Date: 04 March 2026
Orbit: 417 x 426 km, 51.6° (Epoch: 16 March)

Event Time Altitude Azimuth Distance (km) Brightness Sun altitude
Exits shadow 05:13:47 17° 188° (S) 1,132 -1.8 -17.1°
Drops below altitude 10° 05:15:12 10° 166° (SSE) 1,491 -0.9 -16.9°
Sets 05:17:37 0° 149° (SSE) 2,350 0.3 -16.6°
